Regional Weather Roundup
Issued by NWS

Home | Current Version | Previous Version | Text Only | Print | Product List | Glossary On
Versions: 1 2 3 4 5 6 7 8 9 10 11 12 13 14 15 16 17 18 19 20 21 22 23 24 25 26 27 28 29 30 31 32 33 34 35 36 37 38 39 40 41 42 43 44 45 46 47 48 49 50
563
ASUS43 KMKX 261821
RWRWI

WISCONSIN REGIONAL WEATHER ROUNDUP
NATIONAL WEATHER SERVICE MILWAUKEE/SULLIVAN WI
100 PM CDT WED APR 26 2017

NOTE: "FAIR" INDICATES FEW OR NO CLOUDS BELOW 12,000 FEET WITH NO
SIGNIFICANT WEATHER AND/OR OBSTRUCTIONS TO VISIBILITY.

WIZ001-002-006>008-014>016-023>028-261900-
NORTHWEST WISCONSIN

CITY           SKY/WX    TMP DP  RH WIND       PRES   REMARKS
SUPERIOR ARPT  CLOUDY    33  32  95 NE17G23   29.58F FOG     WCI  22
6HR MIN TEMP:  32; 6HR MAX TEMP:  33; 6HR PCP:  0.18;

ASHLAND        MIX PCPN  33  31  92 NE22G32   29.52F WCI  21
6HR MIN TEMP:  32; 6HR MAX TEMP:  33; 6HR PCP:  0.38;

HAYWARD        LGT RAIN  34  31  88 N15G22    29.47F WCI  24
6HR MIN TEMP:  32; 6HR MAX TEMP:  34; 6HR PCP:  0.15;

SIREN          LGT RAIN  35  33  92 NE10G21   29.51F WCI  27
6HR MIN TEMP:  33; 6HR MAX TEMP:  35; 6HR PCP:  0.35;

CUMBERLAND     CLOUDY    32  32 100 N12       29.46F WCI  23
RICE LAKE      DRIZZLE   36  34  94 N10G18    29.46F WCI  28
6HR MIN TEMP:  35; 6HR MAX TEMP:  36; 6HR PCP:  0.11;

CHETEK         LGT RAIN  37  36  98 N14       29.43F WCI  28
6HR MIN TEMP:  36; 6HR MAX TEMP:  38; 6HR PCP:  0.15;

LADYSMITH      DRIZZLE   37  36  94 N9        29.44S WCI  30
6HR MIN TEMP:  37; 6HR MAX TEMP:  38; 6HR PCP:  0.32;

EAU CLAIRE     LGT RAIN  41  39  93 N8        29.44F
6HR MIN TEMP:  39; 6HR MAX TEMP:  42; 6HR PCP:  0.23;

MENOMONIE      CLOUDY    39  39 100 NW8       29.46S WCI  34
6HR MIN TEMP:  38; 6HR MAX TEMP:  40;

NEW RICHMOND   CLOUDY    37  35  94 N14       29.48F WCI  28
6HR MIN TEMP:  35; 6HR MAX TEMP:  37; 6HR PCP:  0.17;

OSCEOLA        CLOUDY    38  38 100 N9        29.52F WCI  31
6HR MIN TEMP:  35; 6HR MAX TEMP:  38; 6HR PCP:  0.14;

$$

WIZ003>005-009-010-017-018-261900-
NORTH CENTRAL WISCONSIN

CITY           SKY/WX    TMP DP  RH WIND       PRES   REMARKS
MANITOWISH WTR RAIN      35  35 100 N7        29.41F WCI  29
6HR MIN TEMP:  34; 6HR MAX TEMP:  35; 6HR PCP:  0.20;

ARBOR VITAE    RAIN      38  37  96 N7        29.40F WCI  32
6HR MIN TEMP:  38; 6HR MAX TEMP:  40; 6HR PCP:  0.27;

WOODRUFF       RAIN      38  37  96 N7        29.40F WCI  32
6HR MIN TEMP:  38; 6HR MAX TEMP:  40; 6HR PCP:  0.27;

RHINELANDER    LGT RAIN  44  44 100 N8        29.37F
6HR MIN TEMP:  45; 6HR MAX TEMP:  50; 6HR PCP:  0.60;

EAGLE RIVER    HVY RAIN  41  41 100 NW9       29.40R
6HR MIN TEMP:  40; 6HR MAX TEMP:  42;

LAND O LAKES   RAIN      38  38 100 N7        29.41S WCI  32
6HR MIN TEMP:  37; 6HR MAX TEMP:  38; 6HR PCP:  0.28;

PHILLIPS       RAIN      36  36 100 N7        29.41S WCI  30
6HR MIN TEMP:  36; 6HR MAX TEMP:  37; 6HR PCP:  0.36;

TOMAHAWK       RAIN      43  42  97 N6        29.38S
6HR MIN TEMP:  43; 6HR MAX TEMP:  48;

MEDFORD        RAIN      47  46  97 N8        29.35F
6HR MIN TEMP:  47; 6HR MAX TEMP:  49; 6HR PCP:  0.26;

MERRILL        RAIN      54  54 100 CALM      29.36F
6HR MIN TEMP:  52; 6HR MAX TEMP:  54; 6HR PCP:  0.51;

$$

WIZ029-030-035-036-043>047-261900-
CENTRAL WISCONSIN

CITY           SKY/WX    TMP DP  RH WIND       PRES   REMARKS
WAUSAU         LGT RAIN  57  56  96 VRB3      29.33F FOG
6HR MIN TEMP:  52; 6HR MAX TEMP:  57; 6HR PCP:  0.42;

MOSINEE        LGT RAIN  57  57 100 S8        29.35F
MARSHFIELD     CLOUDY    59  55  87 SW12      29.34S
6HR MIN TEMP:  55; 6HR MAX TEMP:  60; 6HR PCP:  0.12;

STEVENS POINT  CLOUDY    59  59  99 SW10      29.35S
6HR MIN TEMP:  52; 6HR MAX TEMP:  59;

WAUPACA        CLOUDY    63  61  94 S9        29.36F
6HR MIN TEMP:  58; 6HR MAX TEMP:  63; 6HR PCP:  0.34;

WAUTOMA        CLOUDY    63  59  88 S12         N/A
WISC RAPIDS    CLOUDY    61  59  93 SW8       29.37R
6HR MIN TEMP:  56; 6HR MAX TEMP:  62; 6HR PCP:  0.16;

CAMP DOUGLAS   CLOUDY    61  57  88 SW13      29.38R
                                      6HR PCP:  0.17;

$$

WIZ011>013-019>022-031-037>040-048>050-261900-
NORTHEAST WISCONSIN

CITY           SKY/WX    TMP DP  RH WIND       PRES   REMARKS
ANTIGO         LGT RAIN  53  53 100 SE9       29.36F
6HR MIN TEMP:  49; 6HR MAX TEMP:  53; 6HR PCP:  0.20;

SHAWANO        DRIZZLE   61  59  94 CALM      29.36F
6HR MIN TEMP:  52; 6HR MAX TEMP:  59; 6HR PCP:  0.15;

OCONTO         CLOUDY    56  53  88 S6        29.37R
6HR MIN TEMP:  49; 6HR MAX TEMP:  62;

STURGEON BAY   HVY RAIN  53  50  89 S17       29.40R FOG
6HR MIN TEMP:  53; 6HR MAX TEMP:  60; 6HR PCP:  0.01;

GREEN BAY      LGT RAIN  62  61  96 S7        29.38R FOG
6HR MIN TEMP:  55; 6HR MAX TEMP:  65; 6HR PCP:  0.05;

MANITOWOC      CLOUDY    52  50  93 S12       29.41S
6HR MIN TEMP:  50; 6HR MAX TEMP:  55; 6HR PCP:  0.04;

APPLETON       DRIZZLE   61  59  94 SW10      29.37S FOG
CLINTONVILLE   DRIZZLE   61  59  94 SE7       29.34F
OSHKOSH        PTSUNNY   63  59  87 S13       29.37F
6HR MIN TEMP:  61; 6HR MAX TEMP:  64; 6HR PCP:  0.08;

$$

WIZ032>034-041-042-053>061-261900-
SOUTHWEST WISCONSIN

CITY           SKY/WX    TMP DP  RH WIND       PRES   REMARKS
LA CROSSE      CLOUDY    48  45  89 NW14      29.44R
6HR MIN TEMP:  48; 6HR MAX TEMP:  58; 6HR PCP:  0.09;

SPARTA         CLOUDY    51  50  97 W9        29.42R
6HR MIN TEMP:  51; 6HR MAX TEMP:  57; 6HR PCP:  0.17;

VIROQUA        CLOUDY    54  53  98 W9G16     29.42R VSB 3/4
6HR MIN TEMP:  55; 6HR MAX TEMP:  58; 6HR PCP:  0.10;

BOSCOBEL       CLOUDY    58  53  84 SW12      29.43R
6HR MIN TEMP:  57; 6HR MAX TEMP:  61; 6HR PCP:  0.11;

PRAIRIE DU CHI CLOUDY    54  51  89 SW9       29.44R
6HR MIN TEMP:  54; 6HR MAX TEMP:  58; 6HR PCP:  0.04;

PLATTEVILLE    CLOUDY    55  55  99 SW13      29.48R
6HR MIN TEMP:  55; 6HR MAX TEMP:  60; 6HR PCP:  0.13;

$$

WIZ056-057-062-063-064-067-068-261900-
SOUTH CENTRAL WISCONSIN

CITY           SKY/WX    TMP DP  RH WIND       PRES   REMARKS
REEDSBURG      CLOUDY    62  59  92 SW12      29.39R
6HR MIN TEMP:  58; 6HR MAX TEMP:  63; 6HR PCP:  0.16;

BARABOO/DELLS  CLOUDY    63  58  83 SW17G23   29.39R
6HR MIN TEMP:  58; 6HR MAX TEMP:  64; 6HR PCP:  0.09;

LONE ROCK      CLOUDY    61  56  83 SW10G16   29.42R HAZE
6HR MIN TEMP:  60; 6HR MAX TEMP:  64; 6HR PCP:  0.22;

MINERAL POINT  CLOUDY    57  57 100 SW16      29.45R
MADISON        CLOUDY    62  58  86 SW7       29.41R
6HR MIN TEMP:  58; 6HR MAX TEMP:  63; 6HR PCP:  0.76;

MIDDLETON      CLOUDY    64  59  85 SW12      29.42R
6HR MIN TEMP:  59; 6HR MAX TEMP:  64; 6HR PCP:  0.11;

WATERTOWN      CLOUDY    62  62 100 SW13      29.42R
6HR MIN TEMP:  58; 6HR MAX TEMP:  65; 6HR PCP:  0.12;

MONROE         CLOUDY    63  59  88 SW18      29.45R
JANESVILLE     CLOUDY    63  63 100 S12       29.44R
$$

WIZ051-052-058>065-066-070>072-261900-
SOUTHEAST WISCONSIN

CITY           SKY/WX    TMP DP  RH WIND       PRES   REMARKS
MILWAUKEE      CLOUDY    66  59  78 SW16G25   29.45R
6HR MIN TEMP:  59; 6HR MAX TEMP:  67; 6HR PCP:  0.15;

WAUKESHA       CLOUDY    61  57  88 S8G16     29.45R
MILWAUKEE/TIMM LGT RAIN  63  55  77 SW14G21   29.44R
RACINE         CLOUDY    69  57  65 SW12G23   29.46R
6HR MIN TEMP:  55; 6HR MAX TEMP:  69; 6HR PCP: TRACE;

KENOSHA        PTSUNNY   70  58  65 SW14      29.45S
6HR MIN TEMP:  60; 6HR MAX TEMP:  70; 6HR PCP: TRACE;

FOND DU LAC    LGT RAIN  63  58  83 SW13      29.39S
6HR MIN TEMP:  61; 6HR MAX TEMP:  65; 6HR PCP:  0.05;

SHEBOYGAN      LGT RAIN  60  59  96 S10       29.41S FOG
6HR MIN TEMP:  52; 6HR MAX TEMP:  60; 6HR PCP:  0.04;

WEST BEND      CLOUDY    61  59  94 SW12      29.42S
JUNEAU         CLOUDY    61  59  92 S12       29.41F
6HR MIN TEMP:  58; 6HR MAX TEMP:  64; 6HR PCP:  0.08;

$$

LSZ147-162-261900-
LAKE SUPERIOR

STATION/POSITION TIME  TEMP    WIND        PRES    WAVE
                       AIR SEA DIR/SP/G            HT/PER
                 (UTC) (F)     (DEG/KT/KT) (MB)    (FT/S)
DEVILS ISLAND    1800   32      30/ 30/ 34 1001.8F
PORT WING        1740   33      40/ 28/ 36 1001.0F
SAXON HARBOR     1806   34      40/ 25/ 26  999.3S
$$

LMZ867-665-643>646-261900-
LAKE MICHIGAN

STATION/POSITION TIME  TEMP    WIND        PRES    WAVE
                       AIR SEA DIR/SP/G            HT/PER
                 (UTC) (F)     (DEG/KT/KT) (MB)    (FT/S)
CHAMBERS ISLAND  1740          150/  8/ 19  995.3F
N MID LAKE BUOY  1750   42 37   70/  6/  8  996.8F   2/ 5
NORT



USA.gov is the U.S. government's official web portal to all federal, state and local government web resources and services.